This demonstration page uses our WeatherBlox Daily Observations layout. Learn more.

39.51506, -84.39828

Hourly Observations for November 1, 2018

Temp ( °F °C ) Dew Point ( °F °C ) Humidity (%) Winds ( mph kmh ) Pressure ( in mb ) Visibility ( mi km ) Precip ( " mm )
12:15 am 00:15 Cloudy with Mist and Fog 54 12.1 53 11.5 96 96 NNE 3 6 29.88 1012 5 8.0467 0.01 0.254
12:35 am 00:35 Cloudy with Mist and Fog 54 12.1 53 11.6 97 97 NNE 3 6 29.88 1012 3.5 5.63269 0.01 0.254
12:55 am 00:55 Cloudy with Light Rain 54 12.1 53 11.7 97 97 NNE 3 6 29.85 1011 1.5 2.41401 0.01 0.254
1:15 am 01:15 Cloudy with Light Rain 54 12 53 11.7 98 98 NNE 6 9 29.85 1011 1.75 2.816345 0.01 0.254
1:35 am 01:35 Cloudy with Rain 54 12 53 11.7 98 98 N 6 9 29.85 1011 2.5 4.02335 0.06 1.524
1:55 am 01:55 Cloudy with Rain 54 12.1 53 11.7 97 97 N 9 15 29.85 1011 3.5 5.63269 0.12 3.048
2:15 am 02:15 Cloudy with Rain 53 11.8 52 11.2 96 96 N 8 13 29.85 1011 5 8.0467 0.09 2.286
2:35 am 02:35 Cloudy with Rain 53 11.4 51 10.7 96 96 N 12 19 29.85 1011 7 11.26538 0.16 4.064
2:55 am 02:55 Cloudy with Rain 52 11.1 51 10.3 95 95 N 9 15 29.85 1011 7 11.26538 0.21 5.334
3:15 am 03:15 Cloudy with Light Rain 52 11 50 10.2 95 95 N 10 17 29.85 1011 5 8.0467 0.03 0.762
3:35 am 03:35 Cloudy with Rain 51 10.8 50 10.1 95 95 NNE 13 20 29.85 1011 5 8.0467 0.11 2.794
3:55 am 03:55 Cloudy with Light Rain 51 10.8 50 9.9 94 94 NNE 16 26 29.85 1011 5 8.0467 0.13 3.302
4:15 am 04:15 Cloudy with Rain 51 10.6 50 9.9 95 95 NNE 12 19 29.85 1011 5 8.0467 0.02 0.508
4:35 am 04:35 Cloudy with Heavy Rain 51 10.5 49 9.6 94 94 NNE 14 22 29.85 1011 5 8.0467 0.1 2.54
4:55 am 04:55 Cloudy with Rain 50 10.2 49 9.3 94 94 NNE 18 30 29.83 1010 5 8.0467 0.15 3.81
5:15 am 05:15 Cloudy with Rain 49 9.7 48 8.8 94 94 NNE 16 26 29.83 1010 5 8.0467 0.06 1.524
5:35 am 05:35 Cloudy with Rain 49 9.4 47 8.5 94 94 NNE 14 22 29.85 1011 5 8.0467 0.14 3.556
5:55 am 05:55 Cloudy with Rain 49 9.4 47 8.4 94 94 NNE 9 15 29.85 1011 7 11.26538 0.17 4.318
6:15 am 06:15 Cloudy with Light Rain 48 8.9 47 8.1 95 95 N 10 17 29.85 1011 10 16.0934 0.02 0.508
6:35 am 06:35 Cloudy with Rain 47 8.4 46 7.7 95 95 NNE 13 20 29.85 1011 5 8.0467 0.06 1.524
6:55 am 06:55 Cloudy with Light Rain 47 8.4 46 7.6 95 95 N 9 15 29.83 1010 7 11.26538 0.08 2.032
7:15 am 07:15 Cloudy with Light Rain 47 8.2 46 7.5 95 95 N 8 13 29.83 1010 10 16.0934 0.01 0.254
7:35 am 07:35 Cloudy with Light Rain 47 8.1 45 7.2 94 94 N 10 17 29.83 1010 10 16.0934 0.02 0.508
7:55 am 07:55 Cloudy with Light Rain 47 8.1 45 7.2 94 94 NNE 15 24 29.8 1009 10 16.0934 0.03 0.762
8:15 am 08:15 Cloudy with Light Rain 47 8.1 45 7.3 95 95 NNE 13 20 29.8 1009 10 16.0934 0 0
8:35 am 08:35 Cloudy with Rain 47 8.1 45 7.3 95 95 NNE 14 22 29.77 1008 5 8.0467 0.02 0.508
8:55 am 08:55 Cloudy with Rain 46 8 45 7.2 95 95 N 9 15 29.8 1009 5 8.0467 0.05 1.27
9:15 am 09:15 Cloudy with Heavy Rain 46 8 45 7.3 95 95 NNE 10 17 29.8 1009 5 8.0467 0.07 1.778
9:35 am 09:35 Cloudy with Rain 47 8.1 45 7.4 95 95 NNE 16 26 29.77 1008 5 8.0467 0.12 3.048
9:55 am 09:55 Cloudy with Light Rain 47 8.2 46 7.6 96 96 NE 15 24 29.77 1008 4 6.43736 0.18 4.572
10:15 am 10:15 Cloudy with Light Rain 47 8.4 46 7.7 95 95 NE 10 17 29.74 1007 7 11.26538 0.03 0.762
10:35 am 10:35 Cloudy with Heavy Rain 47 8.4 46 7.6 95 95 NNE 9 15 29.77 1008 5 8.0467 0.07 1.778
10:55 am 10:55 Cloudy with Rain 47 8.4 46 7.7 95 95 NNE 8 13 29.74 1007 5 8.0467 0.13 3.302
11:15 am 11:15 Cloudy with Rain 47 8.5 46 7.9 96 96 NE 15 24 29.71 1006 4 6.43736 0.09 2.286
11:35 am 11:35 Cloudy with Rain 47 8.6 47 8.1 97 97 NE 10 17 29.71 1006 4 6.43736 0.17 4.318
11:55 am 11:55 Cloudy with Heavy Rain 47 8.6 47 8.1 97 97 NNE 14 22 29.68 1005 3.5 5.63269 0.27 6.858
12:15 pm 12:15 Cloudy with Rain 48 8.8 47 8.3 97 97 NNE 7 11 29.68 1005 4 6.43736 0.05 1.27
12:35 pm 12:35 Cloudy with Heavy Rain 48 8.8 47 8.3 97 97 N 5 7 29.65 1004 3.5 5.63269 0.15 3.81
12:55 pm 12:55 Cloudy with Rain 48 9 47 8.5 97 97 N 7 11 29.65 1004 7 11.26538 0.22 5.588
1:15 pm 13:15 Cloudy with Rain 48 8.9 47 8.4 97 97 NNE 8 13 29.62 1003 5 8.0467 0.06 1.524
1:35 pm 13:35 Cloudy with Rain 48 8.9 47 8.4 97 97 NNE 6 9 29.62 1003 5 8.0467 0.12 3.048
1:55 pm 13:55 Cloudy with Rain 48 8.9 47 8.5 97 97 NNE 7 11 29.62 1003 2 3.21868 0.17 4.318
2:15 pm 14:15 Cloudy with Light Rain 48 8.9 47 8.4 97 97 N 9 15 29.62 1003 5 8.0467 0.01 0.254
2:35 pm 14:35 Cloudy with Light Rain 48 8.8 47 8.3 97 97 ENE 5 7 29.59 1002 1.75 2.816345 0.05 1.27
2:55 pm 14:55 Cloudy with Light Rain 48 8.8 47 8.4 97 97 NNE 3 6 29.59 1002 2 3.21868 0.07 1.778
3:15 pm 15:15 Cloudy with Light Rain 48 8.9 47 8.5 97 97 NNE 8 13 29.56 1001 1.75 2.816345 0.02 0.508
3:35 pm 15:35 Cloudy with Light Rain 48 8.9 47 8.5 97 97 N 5 7 29.56 1001 1.25 2.011675 0.03 0.762
3:55 pm 15:55 Cloudy with Light Rain 48 8.8 47 8.4 97 97 NNW 8 13 29.56 1001 1.5 2.41401 0.06 1.524
4:15 pm 16:15 Cloudy with Rain 48 8.7 47 8.2 97 97 N 9 15 29.56 1001 2.5 4.02335 0.05 1.27
4:35 pm 16:35 Cloudy with Light Rain 47 8.6 46 8 96 96 NNE 5 7 29.56 1001 2 3.21868 0.07 1.778
4:55 pm 16:55 Cloudy with Light Rain 47 8.4 46 7.7 95 95 N 8 13 29.56 1001 1.75 2.816345 0.09 2.286
5:15 pm 17:15 Cloudy with Light Rain 47 8.3 46 7.6 95 95 N 8 13 29.56 1001 5 8.0467 0 0
5:35 pm 17:35 Cloudy with Light Drizzle 47 8.2 46 7.5 95 95 N 7 11 29.56 1001 4 6.43736 0.01 0.254
5:55 pm 17:55 Cloudy with Light Drizzle 47 8.2 46 7.5 95 95 N 8 13 29.56 1001 4 6.43736 0.02 0.508
6:15 pm 18:15 Cloudy with Light Rain 47 8.1 45 7.4 95 95 NNE 10 17 29.56 1001 2.5 4.02335 0 0
6:35 pm 18:35 Cloudy with Light Rain 47 8.1 46 7.5 96 96 NNE 12 19 29.56 1001 3 4.82802 0.02 0.508
6:55 pm 18:55 Cloudy with Light Rain 47 8.1 46 7.6 97 97 NNE 10 17 29.53 1000 5 8.0467 0.02 0.508
7:15 pm 19:15 Cloudy with Light Rain 47 8.1 46 7.5 96 96 NNE 8 13 29.53 1000 3.5 5.63269 0.02 0.508
7:35 pm 19:35 Cloudy with Rain 47 8.1 46 7.6 97 97 N 6 9 29.53 1000 5 8.0467 0.06 1.524
7:55 pm 19:55 Cloudy with Heavy Rain 47 8.2 46 7.6 96 96 NNE 8 13 29.53 1000 4 6.43736 0.1 2.54
8:15 pm 20:15 Cloudy with Heavy Rain 47 8.1 46 7.6 97 97 N 7 11 29.56 1001 3 4.82802 0.26 6.604
8:35 pm 20:35 Cloudy with Light Rain 47 8.1 46 7.6 97 97 N 7 11 29.59 1002 7 11.26538 0.34 8.636
8:55 pm 20:55 Cloudy with Light Rain 47 8.2 46 7.6 96 96 N 6 9 29.56 1001 10 16.0934 0.36 9.144
9:15 pm 21:15 Cloudy 47 8.4 46 7.5 94 94 NNE 8 13 29.59 1002 10 16.0934 0 0
9:35 pm 21:35 Cloudy with Light Rain 47 8.6 46 7.5 93 93 NNE 6 9 29.59 1002 10 16.0934 0 0
9:55 pm 21:55 Cloudy 48 8.7 46 7.6 93 93 NNW 5 7 29.59 1002 10 16.0934 0 0
10:15 pm 22:15 Cloudy with Light Rain 47 8.5 46 7.8 95 95 Calm 29.59 1002 3 4.82802 0 0
10:35 pm 22:35 Cloudy with Mist and Fog 47 8.5 46 8 97 97 NNW 3 6 29.62 1003 5 8.0467 0 0
10:55 pm 22:55 Cloudy with Light Drizzle 47 8.6 46 7.9 95 95 Calm 29.62 1003 7 11.26538 0 0
11:15 pm 23:15 Cloudy with Mist and Fog 47 8.6 47 8.1 97 97 SSW 5 7 29.62 1003 5 8.0467 0 0
11:35 pm 23:35 Cloudy with Light Drizzle 47 8.5 47 8.2 98 98 SW 7 11 29.62 1003 3 4.82802 0 0
11:55 pm 23:55 Cloudy with Light Rain 47 8.4 47 8.1 98 98 SW 7 11 29.62 1003 2 3.21868 0 0

Powered by AerisWeather